Regional Weather Roundup
Issued by NWS Columbia, SC

Home | Current Version | Previous Version | Text Only | Print | Product List | Glossary On
Versions: 1 2 3 4 5 6 7 8 9 10 11 12 13 14 15 16 17 18 19 20 21 22 23 24 25 26 27 28 29 30 31 32 33 34 35 36 37 38 39 40 41 42 43 44 45 46 47 48 49 50
000
ASUS42 KCAE 280410
RWRCAE
REGIONAL WEATHER ROUNDUP
NATIONAL WEATHER SERVICE COLUMBIA SC
1200 AM EDT THU JUL 28 2016

NOTE: "FAIR" INDICATES FEW OR NO CLOUDS BELOW 12,000 FEET WITH NO
SIGNIFICANT WEATHER AND/OR OBSTRUCTIONS TO VISIBILITY.

NOT ALL STATIONS ARE QUALITY CONTROLLED BY THE NATIONAL
WEATHER SERVICE. USE DATA WITH CAUTION...ESPECIALLY
DEWPOINT OBSERVATIONS.

SCZ001>056-GAZ040-063>065-077-280500-
...UPSTATE SOUTH CAROLINA...

CITY           SKY/WX    TMP DP  RH WIND       PRES   REMARKS
ANDERSON       CLEAR     83  70  64 SW6       30.00S
LIBERTY        CLEAR     78  72  82 W5        30.00S
SPARTANBURG    CLEAR     81  68  65 SW5       29.98S
CLEMSON        CLEAR     83  70  64 SW5       30.02S
GREENVILLE     CLEAR     85  69  58 W8        30.01S
GREENWOOD      CLEAR     82  69  64 SW8       30.00F
GREER          CLEAR     83  69  62 SW9       29.98S
ROCK HILL      CLEAR     85  69  58 SW7       29.97S
CHESTER        CLEAR     81  68  65 CALM      29.97F
LAURENS        CLEAR     81  72  74 SW5       29.99S


...CENTRAL SOUTH CAROLINA...

CITY           SKY/WX    TMP DP  RH WIND       PRES   REMARKS
COLUMBIA APT   CLEAR     85  70  60 SW6       29.97S
COLUMBIA OWENS CLEAR     85  71  63 S3        29.97F
MCENTIRE ANGB  CLEAR     82  73  72 SW5       29.97F
ORANGEBURG     CLEAR     81  73  76 SW6       29.99S
SUMTER SHAW    CLEAR     83  73  70 S6        29.95S
NEWBERRY       CLEAR     82  72  69 SW6       30.00F
AIKEN          FAIR      81  68  65 SW5       30.03S
MANNING        FAIR      81  73  78 CALM      29.98S
LANCASTER      CLEAR     82  72  69 SW5       29.96F


...EASTERN AND COASTAL SOUTH CAROLINA...

CITY           SKY/WX    TMP DP  RH WIND       PRES   REMARKS
MYRTLE BEACH   CLEAR     84  72  65 SW8       30.00S
N MYRTLE BCH   CLEAR     84  80  88 SW12      29.97F HX  97
CONWAY         FAIR      81  79  94 S5        29.98S
MARION           N/A     82  73  74 S5        29.97R
HARTSVILLE     FAIR      81  72  74 SW3       29.96S
FLORENCE       CLEAR     84  74  71 SW6       29.96S
DARLINGTON     CLEAR     82  76  81 SW6       29.96S
CHARLESTON APT CLEAR     83  78  85 SW7       29.99S
MOUNT PLEASANT FAIR      84  81  89 CALM      30.00R HX  98
WALTERBORO     CLEAR     82  81  94 S5        30.01R HX  95
BEAUFORT       CLEAR     85  78  80 VRB3      30.00S HX  96


...EASTERN GEORGIA...

CITY           SKY/WX    TMP DP  RH WIND       PRES   REMARKS
AUGUSTA BUSH F CLEAR     84  71  65 SW6       29.99R
AUGUSTA DANIEL CLEAR     87  69  54 W6        30.01R
WASHINGTON     FAIR      82  73  74 W5        30.01S
CLAXTON        FAIR      79  75  89 CALM      30.02R
STATESBORO     CLEAR     83  74  74 CALM      30.01S
SAVANNAH       PTCLDY    84  74  71 S9        30.02R


...SOUTHERN NORTH CAROLINA...

CITY           SKY/WX    TMP DP  RH WIND       PRES   REMARKS
CHARLOTTE      PTCLDY    86  69  56 W8        29.97R
MONROE         CLEAR     85  69  58 SW8       29.96R
ROCKINGHAM     CLEAR     83  76  77 S6        29.95S
RUTHERFORDTON    N/A     80  73  78 NE5       30.00S
ASHEVILLE      CLEAR     75  65  70 N8        30.07R

$$



USA.gov is the U.S. government's official web portal to all federal, state and local government web resources and services.